VJT85 KGSO-KIND

Flight info

Callsign VJT85
Flight time N/A
Altitude 40000
Route TRSHA1 BAWDS AZQ HAGAL GIIBS4
Aircraft CL60/M-SADE3FGHIJ3J4J7P2RWXY/HB1D1

Departure

Time 2026-05-05 13:02
Airport Piedmont Triad International Airport (KGSO)

Arrival

Time N/A
Airport Indianapolis International Airport (KIND)
Time Latitude Longitude Altitude Speed Heading
2026-05-05 12:55 36.09894 -79.94607 895 ft 0 kts 57°
2026-05-05 12:55 36.09895 -79.94607 895 ft 0 kts 57°
2026-05-05 12:56 36.09892 -79.94591 895 ft 2 kts 170°
2026-05-05 12:56 36.09887 -79.94608 895 ft 2 kts 299°
2026-05-05 12:56 36.09912 -79.94642 894 ft 7 kts 314°
2026-05-05 12:56 36.09931 -79.94712 894 ft 9 kts 231°
2026-05-05 12:57 36.09885 -79.94766 895 ft 9 kts 226°
2026-05-05 12:57 36.09878 -79.94846 896 ft 11 kts 302°
2026-05-05 12:57 36.09942 -79.94928 894 ft 15 kts 316°
2026-05-05 12:57 36.10030 -79.95036 891 ft 19 kts 314°
2026-05-05 12:58 36.10139 -79.95169 888 ft 22 kts 316°
2026-05-05 12:58 36.10193 -79.95236 887 ft 12 kts 317°
2026-05-05 12:58 36.10276 -79.95262 885 ft 15 kts 38°
2026-05-05 12:58 36.10367 -79.95149 879 ft 22 kts 45°
2026-05-05 12:59 36.10488 -79.94991 873 ft 27 kts 45°
2026-05-05 12:59 36.10608 -79.94846 868 ft 31 kts 44°
2026-05-05 12:59 36.10768 -79.94640 862 ft 35 kts 50°
2026-05-05 13:00 36.11087 -79.94224 852 ft 35 kts 45°
2026-05-05 13:00 36.11261 -79.94009 848 ft 23 kts 43°
2026-05-05 13:01 36.11543 -79.93649 847 ft 12 kts 45°
2026-05-05 13:01 36.11598 -79.93673 847 ft 10 kts 306°
2026-05-05 13:01 36.11609 -79.93759 847 ft 11 kts 224°
2026-05-05 13:01 36.11598 -79.93771 847 ft 0 kts 226°
2026-05-05 13:02 36.11383 -79.94047 848 ft 98 kts 227°
2026-05-05 13:02 36.10724 -79.94868 989 ft 148 kts 223°
2026-05-05 13:02 36.09937 -79.95814 1288 ft 166 kts 224°
2026-05-05 13:02 36.09110 -79.96825 1731 ft 171 kts 232°
2026-05-05 13:03 36.08604 -79.98167 2048 ft 189 kts 252°
2026-05-05 13:03 36.08275 -79.99840 3036 ft 211 kts 258°
2026-05-05 13:03 36.08084 -80.01651 3856 ft 210 kts 261°
2026-05-05 13:03 36.07935 -80.03436 4677 ft 208 kts 261°
2026-05-05 13:04 36.07786 -80.05274 5158 ft 223 kts 261°
2026-05-05 13:04 36.07621 -80.07289 5644 ft 244 kts 261°
2026-05-05 13:04 36.07443 -80.09425 6222 ft 253 kts 261°
2026-05-05 13:04 36.07479 -80.11629 6863 ft 272 kts 279°
2026-05-05 13:05 36.08355 -80.13757 8131 ft 290 kts 306°
2026-05-05 13:05 36.09868 -80.15464 9198 ft 301 kts 315°
2026-05-05 13:05 36.11519 -80.17134 9746 ft 304 kts 315°
2026-05-05 13:05 36.13142 -80.18778 9942 ft 303 kts 316°
2026-05-05 13:06 36.14768 -80.20422 10255 ft 293 kts 316°
2026-05-05 13:06 36.16341 -80.22016 10950 ft 294 kts 316°
2026-05-05 13:06 36.17935 -80.23640 11679 ft 300 kts 316°
2026-05-05 13:06 36.19557 -80.25292 12434 ft 304 kts 316°
2026-05-05 13:07 36.21188 -80.26954 13206 ft 306 kts 316°
2026-05-05 13:07 36.22819 -80.28616 13989 ft 308 kts 316°
2026-05-05 13:07 36.24473 -80.30305 14792 ft 310 kts 316°
2026-05-05 13:07 36.26152 -80.32021 15675 ft 317 kts 316°
2026-05-05 13:08 36.27834 -80.33740 16837 ft 317 kts 316°
2026-05-05 13:08 36.29351 -80.35644 17970 ft 313 kts 306°
2026-05-05 13:08 36.30702 -80.37739 19003 ft 314 kts 305°
2026-05-05 13:08 36.32070 -80.39860 19992 ft 316 kts 306°
2026-05-05 13:09 36.33422 -80.41952 20907 ft 318 kts 306°
2026-05-05 13:09 36.34809 -80.44096 21799 ft 321 kts 306°
2026-05-05 13:09 36.36221 -80.46269 22700 ft 323 kts 307°
2026-05-05 13:09 36.37628 -80.48434 23520 ft 326 kts 307°
2026-05-05 13:10 36.39052 -80.50627 24343 ft 329 kts 307°
2026-05-05 13:10 36.40491 -80.52844 25111 ft 333 kts 307°
2026-05-05 13:10 36.41954 -80.55096 25882 ft 336 kts 308°
2026-05-05 13:10 36.43418 -80.57353 26626 ft 338 kts 308°
2026-05-05 13:11 36.44893 -80.59628 27304 ft 342 kts 308°
2026-05-05 13:11 36.46375 -80.61921 27956 ft 344 kts 308°
2026-05-05 13:11 36.47867 -80.64253 28592 ft 347 kts 308°
2026-05-05 13:11 36.49372 -80.66608 29199 ft 351 kts 307°
2026-05-05 13:12 36.50879 -80.69037 29805 ft 353 kts 303°